Content
SEND FEEDBACK

Daily
Averages
Monthly
Summary
Mexico

LEONA VICARIO, QUINTANA ROO


Home > North America > Mexico > Quintana Roo
Elevation: 26 feet     Latitude: 20 59N     Longitude: 087 12W

WEATHER
 
SELECT A DAY
Number of Records: 163,677;   Date Range: 1/1/95 - 7/23/14
 
SHARE

PRINT THIS DATA

[ ← Previous Day ]
WEATHER ALMANAC - JANUARY 11, 2013
[ Next Day → ]
[ °C ]   °F
Weather ElementAverageHighLow
Temperature78.5 °F82.4 °F (10:41 am)75.2 °F (8:41 pm)
Dewpoint70.2 °F73.4 °F (8:41 pm)66.2 °F (8:44 am)
Humidity76.2 %94 % (8:41 pm)61 % (8:44 am)
Barometer30.04 in30.10 in (1:43 am)30.00 in (11:46 pm)
Wind Speed9.4 mph17.3 mph (10:41 am)
Weather ElementAverage
Visibility6.9 mi
Wind DirectionESE (114.3 °)

Weather ElementTotal
Precipitation---
Cooling Degree Days13.8 (Base 65)
Growing Degree Days28.8 (Base 50)
Averaged from 23 records on January 11, 2013
WEATHER CONDITIONS BREAKOUT
WIND DIRECTION BREAKOUT
WEATHER BY HOUR - JANUARY 11, 2013
[ °C ]   °F
Local TimeTemperatureDewpointHumidityBarometerVisibilityWind DirectionWind SpeedGust SpeedPrecipitationEventsConditions
1:43 AM77.0 °F71.6 °F83 %30.10 in7.0 miEast (100°)9.2 mphScattered Clouds
2:47 AM77.0 °F69.8 °F78 %30.07 in7.0 miESE (110°)9.2 mphPartly Cloudy
3:42 AM77.0 °F69.8 °F78 %30.06 in7.0 miESE (110°)8.1 mphPartly Cloudy
4:46 AM77.0 °F68.0 °F74 %30.05 in7.0 miESE (110°)8.1 mphPartly Cloudy
5:45 AM77.0 °F69.8 °F78 %30.04 in7.0 miESE (110°)9.2 mphScattered Clouds
6:45 AM77.0 °F69.8 °F78 %30.06 in7.0 miESE (110°)6.9 mphScattered Clouds
7:45 AM78.8 °F68.0 °F69 %30.07 in7.0 miESE (110°)10.4 mphMostly Cloudy
8:44 AM80.6 °F66.2 °F61 %30.08 in7.0 miESE (120°)15.0 mphMostly Cloudy
9:40 AM80.6 °F68.0 °F65 %30.09 in7.0 miESE (120°)11.5 mphMostly Cloudy
10:41 AM82.4 °F69.8 °F66 %30.07 in7.0 miSE (130°)17.3 mphMostly Cloudy
11:43 AM82.4 °F69.8 °F66 %30.05 in7.0 miESE (120°)13.8 mphMostly Cloudy
12:45 PM80.6 °F69.8 °F70 %30.03 in7.0 miESE (120°)11.5 mphMostly Cloudy
1:42 PM82.4 °F69.8 °F66 %30.01 in7.0 miSE (140°)12.7 mphMostly Cloudy
2:47 PM82.4 °F69.8 °F66 %30.01 in7.0 miESE (110°)9.2 mphMostly Cloudy
3:42 PM80.6 °F69.8 °F70 %30.01 in7.0 miESE (110°)8.1 mphMostly Cloudy
4:41 PM80.6 °F69.8 °F70 %30.01 in7.0 miSE (130°)11.5 mphMostly Cloudy
5:44 PM77.0 °F69.8 °F78 %30.01 in7.0 miESE (110°)6.9 mphScattered Clouds
6:42 PM77.0 °F69.8 °F78 %30.01 in7.0 miESE (120°)5.8 mphScattered Clouds
7:41 PM77.0 °F71.6 °F83 %30.01 in7.0 miESE (110°)5.8 mphPartly Cloudy
8:41 PM75.2 °F73.4 °F94 %30.01 in7.0 miEast (80°)6.9 mphMostly Cloudy
9:48 PM75.2 °F73.4 °F94 %30.02 in6.0 miESE (120°)5.8 mphMostly Cloudy
10:47 PM75.2 °F73.4 °F94 %30.03 in6.0 miSE (130°)5.8 mphMostly Cloudy
11:46 PM75.2 °F73.4 °F94 %30.00 in6.0 miEast (100°)8.1 mphMostly Cloudy
Hourly data recorded from MMUN, located miles away from Leona Vicario, Quintana Roo







STORIES FROM OUR PARTNERS